KMOLAKE37 Weather Reports


Display with metric or nautical units.
time (UTC)temp
F
wind
direction
speed
MPH
gust
MPH
rain 1hr
in
rain 24hr
in
rain mn
in
humidity
%
barometer
mb
20260510191534 70 7 2.0 7.0 0.00 0.32 0.00 38 1020.7
20260510190043 68 25 0.0 4.0 0.00 0.32 0.00 45 1020.6
20260510184540 67 239 1.0 3.0 0.00 0.32 0.00 45 1020.5
20260510183039 69 56 1.0 3.0 0.00 0.32 0.00 46 1020.5
20260510181536 70 77 0.0 4.0 0.00 0.32 0.00 43 1020.3
20260510180036 68 266 0.0 5.0 0.00 0.32 0.00 45 1020.2
20260510174531 67 0 0.0 3.0 0.00 0.32 0.00 48 1020.3
20260510173042 66 20 1.0 4.0 0.00 0.32 0.00 51 1020.6
20260510171537 65 6 1.0 5.0 0.00 0.32 0.00 52 1020.8
20260510170038 65 248 1.0 7.0 0.00 0.32 0.00 48 1020.7
20260510164539 63 281 1.0 4.0 0.00 0.32 0.00 62 1020.7
20260510163032 62 295 0.0 1.0 0.00 0.32 0.00 63 1020.7
20260510161535 62 0 0.0 1.0 0.00 0.32 0.00 65 1020.8
20260510160034 62 271 1.0 3.0 0.00 0.32 0.00 60 1021.0
20260510154539 61 338 1.0 5.0 0.00 0.32 0.00 65 1020.7
20260510153036 60 330 1.0 4.0 0.00 0.32 0.00 71 1020.7
20260510151537 59 271 2.0 3.0 0.00 0.32 0.00 70 1020.6
20260510150045 58 0 1.0 4.0 0.00 0.32 0.00 67 1020.3
20260510144551 58 220 1.0 4.0 0.00 0.32 0.00 69 1020.3
20260510143038 59 0 1.0 4.0 0.00 0.32 0.00 70 1019.8
20260510141537 60 252 0.0 6.0 0.00 0.32 0.00 69 1019.7
20260510140035 59 38 0.0 3.0 0.00 0.32 0.00 78 1019.5
20260510134539 58 139 0.0 4.0 0.00 0.32 0.00 83 1019.5
20260510133035 56 0 1.0 4.0 0.00 0.32 0.00 86 1019.2
20260510131537 54 0 0.0 3.0 0.00 0.32 0.00 94 1019.5
20260510130037 53 0 0.0 4.0 0.00 0.32 0.00 95 1018.9
20260510124546 52 0 0.0 0.0 0.00 0.32 0.00 95 1018.9
20260510123034 52 0 0.0 1.0 0.00 0.32 0.00 96 1018.6
20260510121538 51 0 0.0 1.0 0.00 0.32 0.00 96 1018.4
20260510120039 51 0 0.0 0.0 0.00 0.32 0.00 96 1018.2
20260510114540 51 0 0.0 0.0 0.00 0.32 0.00 96 1017.8
20260510113037 51 0 0.0 0.0 0.00 0.32 0.00 96 1017.6
20260510111546 51 0 0.0 0.0 0.00 0.32 0.00 96 1017.2
20260510110038 51 0 0.0 0.0 0.00 0.32 0.00 96 1017.1
20260510104546 52 0 0.0 0.0 0.00 0.32 0.00 96 1016.6
20260510103037 52 0 0.0 0.0 0.00 0.32 0.00 96 1016.5
20260510101535 53 0 0.0 0.0 0.00 0.32 0.00 96 1016.1
20260510100032 54 0 0.0 0.0 0.00 0.32 0.00 96 1015.8
20260510094540 54 0 0.0 1.0 0.00 0.32 0.00 96 1015.7
20260510093038 55 0 0.0 0.0 0.00 0.32 0.00 96 1015.6
20260510091537 55 0 0.0 0.0 0.00 0.32 0.00 96 1015.5
20260510090036 56 0 0.0 0.0 0.00 0.32 0.00 96 1015.3
20260510084535 56 0 0.0 0.0 0.00 0.32 0.00 96 1015.0
20260510083037 56 0 0.0 0.0 0.00 0.32 0.00 96 1014.4
20260510081542 56 0 0.0 0.0 0.00 0.32 0.00 96 1014.3
20260510080037 57 0 0.0 0.0 0.00 0.32 0.00 96 1013.8
20260510074536 57 337 0.0 0.0 0.00 0.32 0.00 95 1013.5
20260510073034 58 0 0.0 0.0 0.00 0.32 0.00 95 1013.7
20260510071535 58 0 0.0 0.0 0.00 0.32 0.00 95 1013.6
20260510070040 58 0 0.0 0.0 0.00 0.32 0.00 95 1013.5
20260510064537 58 0 0.0 0.0 0.00 0.32 0.00 95 1013.6
20260510063039 59 0 0.0 0.0 0.00 0.32 0.00 95 1013.4
20260510061538 59 0 0.0 0.0 0.00 0.32 0.00 95 1013.5
20260510060046 59 0 0.0 0.0 0.00 0.32 0.00 95 1013.6
20260510054533 59 0 0.0 1.0 0.01 0.32 0.00 95 1013.4
20260510053037 60 0 0.0 2.0 0.01 0.32 0.00 95 1013.2
20260510051545 60 0 0.0 1.0 0.01 0.32 0.00 94 1012.6
20260510050039 60 340 0.0 1.0 0.05 0.32 0.00 94 1013.0
20260510044538 60 342 0.0 1.0 0.06 0.31 0.31 94 1012.8
20260510043047 60 0 0.0 4.0 0.09 0.31 0.31 94 1012.5
20260510041538 61 71 1.0 4.0 0.12 0.31 0.31 93 1012.0
20260510040035 61 63 0.0 2.0 0.14 0.27 0.27 93 1012.9
20260510034543 61 0 0.0 4.0 0.25 0.26 0.25 92 1012.5
20260510033040 61 264 0.0 6.0 0.22 0.23 0.22 91 1013.1
20260510031555 62 147 2.0 12.0 0.19 0.20 0.19 90 1013.4
20260510030039 63 161 4.0 22.0 0.12 0.13 0.12 85 1013.2
20260510024538 66 249 9.0 25.0 0.00 0.21 0.00 74 1012.0
20260510023046 66 0 0.0 0.0 0.00 0.21 0.00 74 1010.0
20260510021541 66 0 0.0 0.0 0.00 0.21 0.00 73 1009.7
20260510020034 66 0 0.0 0.0 0.00 0.21 0.00 70 1009.6
20260510014534 67 0 0.0 0.0 0.00 0.37 0.00 67 1009.4
20260510013039 68 0 0.0 0.0 0.00 0.37 0.00 65 1009.0
20260510011548 69 0 0.0 0.0 0.00 0.37 0.00 62 1008.9
20260510010044 71 0 0.0 0.0 0.00 0.37 0.00 59 1009.0
20260510004534 73 0 0.0 0.0 0.00 0.39 0.00 54 1008.8
20260510003032 75 0 0.0 0.0 0.00 0.39 0.00 52 1008.7
20260510001538 76 0 0.0 0.0 0.00 0.39 0.00 48 1008.5
20260510000037 78 0 0.0 4.0 0.00 0.39 0.00 46 1008.5
20260509234536 79 0 0.0 2.0 0.00 0.40 0.00 45 1008.5
20260509233037 81 310 0.0 1.0 0.00 0.40 0.00 43 1008.5
20260509231541 83 0 0.0 1.0 0.00 0.40 0.00 45 1008.4
20260509230038 81 0 0.0 5.0 0.00 0.40 0.00 40 1008.3
20260509224534 81 328 1.0 6.0 0.00 0.40 0.00 39 1008.3
20260509223035 82 264 2.0 10.0 0.00 0.40 0.00 38 1008.3
20260509221539 82 264 2.0 6.0 0.00 0.40 0.00 39 1008.4
20260509220037 82 257 3.0 8.0 0.00 0.40 0.00 39 1008.2
20260509214535 82 273 2.0 6.0 0.00 0.40 0.00 39 1008.5
20260509213052 81 283 2.0 9.0 0.00 0.40 0.00 42 1008.4
20260509211605 81 313 3.0 10.0 0.00 0.40 0.00 38 1008.5
20260509210038 81 0 2.0 8.0 0.00 0.40 0.00 40 1008.5
20260509204540 81 285 3.0 10.0 0.00 0.40 0.00 40 1008.8
20260509203041 80 293 3.0 10.0 0.00 0.40 0.00 38 1008.8
20260509201536 80 248 4.0 9.0 0.00 0.40 0.00 39 1009.1
20260509200039 80 224 6.0 13.0 0.00 0.40 0.00 40 1009.3
20260509194541 79 257 4.0 13.0 0.00 0.40 0.00 42 1009.2
20260509193035 79 296 3.0 13.0 0.00 0.40 0.00 42 1009.2